Location: Archemont
(49.1579°N, 1.7598°E)
Time: 12:35:10
(UTC+00:00)

Cosmos 1892 - Pass Details

Date: 03 February 2023
Orbit: 486 x 506 km, 82.5° (Epoch: 25 March)

Event Time Altitude Azimuth Distance (km) Brightness Sun altitude
Rises 18:03:44 0° 185° (S) 2,572 6.5 -11.9°
Reaches altitude 10° 18:05:50 10° 185° (S) 1,698 5.5 -12.2°
Maximum altitude 18:09:33 81° 99° (E) 516 2.5 -12.8°
Drops below altitude 10° 18:13:20 10° 12° (NNE) 1,731 5.1 -13.4°
Sets 18:15:29 0° 11° (N) 2,626 6.1 -13.8°
